This demonstration page uses our WeatherBlox Daily Observations layout. Learn more.

Left ArrowRight Arrow

39.51506, -84.39828

Hourly Observations for June 16, 2017

Temp ( °F °C ) Dew Point ( °F °C ) Humidity (%) Winds ( mph kmh ) Pressure ( in mb ) Visibility ( mi km ) Precip ( " mm )
12:15 am 00:15 Clear 69 20.8 65 18.1 85 85 N N/A 29.85 1011 7 11 N/A
12:35 am 00:35 Mostly Cloudy with Haze 69 20.8 65 18.2 85 85 N N/A 29.85 1011 1 2 N/A
12:55 am 00:55 Hazy 69 20.8 65 18.2 85 85 N N/A 29.85 1011 4 6 N/A
1:15 am 01:15 Hazy 69 20.8 65 18.3 86 86 N N/A 29.85 1011 5 8 N/A
1:35 am 01:35 Mostly Cloudy with Haze 69 20.8 65 18.4 86 86 N N/A 29.85 1011 1 1 N/A
1:55 am 01:55 Mostly Cloudy 69 20.8 65 18.3 86 86 N N/A 29.85 1011 7 11 N/A
2:15 am 02:15 Mostly Cloudy 69 20.8 65 18.5 87 87 N N/A 29.85 1011 7 11 N/A
2:35 am 02:35 Partly Cloudy 69 20.8 65 18.5 87 87 N N/A 29.85 1011 7 11 N/A
2:55 am 02:55 Clear 69 20.8 65 18.3 86 86 N N/A 29.85 1011 7 11 N/A
3:15 am 03:15 Clear 69 20.8 65 18.5 87 87 N N/A 29.85 1011 10 16 N/A
3:35 am 03:35 Clear 70 21.3 66 18.8 86 86 W 6 9 29.88 1012 10 16 N/A
3:55 am 03:55 Clear 71 21.6 66 18.9 85 85 WSW 3 6 29.85 1011 10 16 N/A
4:15 am 04:15 Clear 70 21 64 18 83 83 N N/A 29.85 1011 10 16 N/A
4:35 am 04:35 Clear 71 21.6 65 18.6 83 83 N N/A 29.85 1011 10 16 N/A
4:55 am 04:55 Clear 69 20.8 65 18.1 85 85 N N/A 29.85 1011 7 11 N/A
5:15 am 05:15 Mostly Cloudy with Haze 69 20.8 65 18.2 85 85 N N/A 29.88 1012 1 2 N/A
5:35 am 05:35 Mostly Cloudy with Haze 69 20.8 65 18.3 86 86 N N/A 29.88 1012 2 2 N/A
5:55 am 05:55 Clear 69 20.8 65 18.5 87 87 N N/A 29.88 1012 7 11 N/A
6:15 am 06:15 Mostly Cloudy with Haze 69 20.8 65 18.3 86 86 N N/A 29.88 1012 2 3 N/A
6:35 am 06:35 Mostly Cloudy with Haze 69 20.8 65 18.3 86 86 N N/A 29.88 1012 2 2 N/A
6:55 am 06:55 Hazy 69 20.8 65 18.4 86 86 N N/A 29.88 1012 5 8 N/A
7:15 am 07:15 Sunny 69 20.8 65 18.5 87 87 N N/A 29.88 1012 7 11 N/A
7:35 am 07:35 Sunny 71 21.6 66 19.1 86 86 N N/A 29.88 1012 7 11 N/A
7:55 am 07:55 Sunny 73 22.5 68 20 86 86 N N/A 29.88 1012 10 16 N/A
8:15 am 08:15 Sunny 74 23.6 70 20.9 85 85 N N/A 29.88 1012 10 16 N/A
8:35 am 08:35 Sunny 74 23.6 68 20.2 81 81 N N/A 29.88 1012 10 16 N/A
8:55 am 08:55 Sunny 75 23.7 68 20.2 81 81 N N/A 29.88 1012 7 11 N/A
9:15 am 09:15 Sunny 77 25.1 69 20.7 77 77 N N/A 29.88 1012 10 16 N/A
9:35 am 09:35 Sunny 77 25.1 69 20.7 77 77 N N/A 29.88 1012 10 16 N/A
9:55 am 09:55 Sunny 80 26.5 70 21.2 73 73 N N/A 29.88 1012 10 16 N/A
10:15 am 10:15 Sunny 80 26.7 69 20.8 70 70 N 3 6 29.88 1012 10 16 N/A
10:35 am 10:35 Sunny 81 27.2 69 20.7 68 68 N N/A 29.85 1011 10 16 N/A
10:55 am 10:55 Sunny 82 27.6 68 20.2 64 64 N N/A 29.85 1011 10 16 N/A
11:15 am 11:15 Sunny 82 28 67 19.4 60 60 N N/A 29.85 1011 10 16 N/A
11:35 am 11:35 Sunny 83 28.4 65 18.5 55 55 N N/A 29.85 1011 10 16 N/A
11:55 am 11:55 Sunny 83 28.3 64 17.7 53 53 N N/A 29.85 1011 10 16 N/A
12:15 pm 12:15 Sunny 83 28.6 64 18 53 53 N N/A 29.85 1011 10 16 N/A
12:35 pm 12:35 Sunny 84 28.7 62 16.4 47 47 N N/A 29.85 1011 10 16 N/A
12:55 pm 12:55 Sunny 85 29.4 62 16.4 45 45 N N/A 29.85 1011 10 16 N/A
1:15 pm 13:15 Sunny 87 30.7 61 16.3 42 42 NNW 5 7 29.85 1011 10 16 N/A
1:35 pm 13:35 Sunny 88 31.3 63 17.2 43 43 N 5 7 29.83 1010 10 16 N/A
1:55 pm 13:55 Sunny 90 32.1 59 15.1 36 36 NNW 3 6 29.83 1010 10 16 N/A
2:15 pm 14:15 Sunny 90 32.1 60 15.3 36 36 N N/A 29.83 1010 10 16 N/A
2:35 pm 14:35 Sunny 90 32.1 61 15.9 38 38 N N/A 29.83 1010 10 16 N/A
2:55 pm 14:55 Sunny 90 32.1 61 16 38 38 WSW 3 6 29.83 1010 10 16 N/A
3:15 pm 15:15 Partly Cloudy 90 32.1 62 16.8 40 40 SW 7 11 29.80 1009 10 16 N/A
3:35 pm 15:35 Partly Cloudy 90 32.1 61 16.2 38 38 SW 6 9 29.80 1009 10 16 N/A
3:55 pm 15:55 Sunny 90 32.1 61 16.3 39 39 SSW 6 9 29.80 1009 10 16 N/A
4:15 pm 16:15 Sunny 90 32.1 60 15.6 37 37 S 6 9 29.80 1009 10 16 N/A
4:35 pm 16:35 Sunny 90 32.1 57 13.9 33 33 SSE 5 7 29.80 1009 10 16 N/A
4:55 pm 16:55 Sunny 90 32.1 54 12 29 29 N N/A 29.80 1009 10 16 N/A
5:15 pm 17:15 Sunny 90 32.1 49 9.7 25 25 ESE 5 7 29.80 1009 10 16 N/A
5:35 pm 17:35 Sunny 90 32.1 53 11.9 29 29 SE 5 7 29.80 1009 10 16 N/A
5:55 pm 17:55 Sunny 90 32.1 55 12.5 30 30 ESE 5 7 29.80 1009 10 16 N/A
6:15 pm 18:15 Sunny 90 32.1 52 11.1 27 27 ESE 7 11 29.80 1009 10 16 N/A
6:35 pm 18:35 Sunny 90 32.1 54 12 29 29 ESE 5 7 29.80 1009 10 16 N/A
6:55 pm 18:55 Sunny 90 32.1 56 13.3 32 32 SE 5 7 29.80 1009 10 16 N/A
7:15 pm 19:15 Sunny 90 32.1 55 12.6 30 30 SSE 5 7 29.80 1009 10 16 N/A
7:35 pm 19:35 Sunny 90 32.1 56 13.5 32 32 N N/A 29.77 1008 10 16 N/A
7:55 pm 19:55 Sunny 84 29.1 54 12 35 35 SW 5 7 29.80 1009 10 16 N/A
8:15 pm 20:15 Sunny 81 27.2 62 16.5 52 52 WSW 3 6 29.80 1009 10 16 N/A
8:35 pm 20:35 Sunny 80 26.5 67 19.5 65 65 N N/A 29.80 1009 10 16 N/A
8:55 pm 20:55 Sunny 77 25.1 66 18.8 68 68 N N/A 29.83 1010 10 16 N/A
9:15 pm 21:15 Clear 75 24 66 19.1 74 74 N N/A 29.83 1010 10 16 N/A
9:35 pm 21:35 Clear 75 24.1 68 19.8 77 77 N N/A 29.83 1010 10 16 N/A
9:55 pm 21:55 Clear 74 23.6 67 19.6 78 78 N N/A 29.83 1010 10 16 N/A
10:15 pm 22:15 Clear 74 23.6 67 19.7 79 79 N N/A 29.83 1010 10 16 N/A
10:35 pm 22:35 Clear 74 23.6 68 20.1 81 81 N N/A 29.83 1010 10 16 N/A
10:55 pm 22:55 Clear 74 23.6 68 20 80 80 N N/A 29.83 1010 7 11 N/A
11:15 pm 23:15 Clear 71 21.6 65 18.2 81 81 N N/A 29.83 1010 10 16 N/A
11:35 pm 23:35 Clear 70 21.1 64 17.8 82 82 N N/A 29.83 1010 10 16 N/A
11:55 pm 23:55 Mostly Cloudy with Haze 69 20.8 64 17.6 82 82 N N/A 29.83 1010 5 8 N/A

Powered by AerisWeather